Location: Oregon Trail
(41.1872°N, 102.0741°W)
Time: 02:33:35
(UTC+00:00)

Cosmos 2322 Rocket - Pass Details

Date: 19 November 2019
Orbit: 832 x 851 km, 71.0° (Epoch: 08 December)

Event Time Altitude Azimuth Distance (km) Brightness Sun altitude
Exits shadow 13:02:29 - 313° (NW) 2,786 4.3 -7.5°
Reaches altitude 10° 13:03:34 10° 306° (NW) 2,470 4.0 -7.3°
Maximum altitude 13:07:40 21° 260° (W) 1,816 3.5 -6.6°
Drops below altitude 10° 13:11:47 10° 213° (SSW) 2,465 4.5 -5.9°
Sets 13:14:47 0° 197° (SSW) 3,398 5.4 -5.3°
